SITE: BDASn,YEAR: 2000,,,,,,,
2000 date,time,pzhd (cm),DWT (cm),WT elev (m),,,,
03/28/00,11:00,148.7,187.0,1371.651,,Depth to water table:,,
03/28/00,11:30,149.2,186.5,1371.656,,DWT = SCL - CH - h,,
03/28/00,12:00,149.5,186.2,1371.659,,where ,,
03/28/00,12:30,149.7,186.0,1371.661,,SCL = sensor cable length = 465.7 cm,,
03/28/00,13:00,149.8,185.9,1371.662,,CH = casing height of well = 130.0 cm,,
03/28/00,13:30,149.8,185.9,1371.662,,h = height of water above sensor (from pzhd cm column),,
03/28/00,14:00,149.8,185.9,1371.662,,,,
03/28/00,14:30,149.8,185.9,1371.662,,WT elevation:,,
03/28/00,15:00,149.6,186.1,1371.660,,Sensor elev = 1370.164 m asl,,
03/28/00,15:30,149.6,186.1,1371.660,,WT elev = sensor elev + h (from pzhd column),,
03/28/00,16:00,149.7,186.0,1371.661,,,,
03/28/00,16:30,149.4,186.3,1371.658,,,,
03/28/00,17:00,149.3,186.4,1371.657,,Date w/missing data (# 0.5 hr data points):,,
03/28/00,17:30,149.1,186.6,1371.655,,3/31 (4).,,
03/28/00,18:00,148.9,186.8,1371.653,,,,
03/28/00,18:30,148.9,186.8,1371.653,,,,
03/28/00,19:00,148.6,187.1,1371.650,,Dates with estimated data: 8/24--9/5. Equipment,,
03/28/00,19:30,148.4,187.3,1371.648,,malfunction (578 data points).,,
03/28/00,20:00,148.4,187.3,1371.648,,,,
03/28/00,20:30,148.2,187.5,1371.646,,,,
03/28/00,21:00,148.1,187.6,1371.645,,,,
03/28/00,21:30,148.0,187.7,1371.644,,,,
03/28/00,22:00,148.0,187.7,1371.644,,,,
03/28/00,22:30,147.9,187.8,1371.643,,,,
03/28/00,23:00,147.8,187.9,1371.642,,,,
03/28/00,23:30,147.8,187.9,1371.642,,,,
03/29/00,0:00,147.8,187.9,1371.642,,,,
03/29/00,0:30,147.6,188.1,1371.640,,,,
03/29/00,1:00,147.6,188.1,1371.640,,,,
03/29/00,1:30,147.5,188.2,1371.639,,,,
03/29/00,2:00,147.5,188.2,1371.639,,,,
03/29/00,2:30,147.4,188.3,1371.638,,,,
03/29/00,3:00,147.3,188.4,1371.637,,,,
03/29/00,3:30,147.2,188.5,1371.636,,,,
03/29/00,4:00,147.0,188.7,1371.634,,,,
03/29/00,4:30,147.1,188.6,1371.635,,,,
03/29/00,5:00,147.0,188.7,1371.634,,,,
03/29/00,5:30,146.8,188.9,1371.632,,,,
03/29/00,6:00,146.7,189.0,1371.631,,,,
03/29/00,6:30,146.6,189.1,1371.630,,,,
03/29/00,7:00,146.5,189.2,1371.629,,,,
03/29/00,7:30,146.3,189.4,1371.627,,,,
03/29/00,8:00,146.3,189.4,1371.627,,,,
03/29/00,8:30,146.8,188.9,1371.632,,,,
03/29/00,9:00,146.3,189.4,1371.627,,,,
03/29/00,9:30,146.4,189.3,1371.628,,,,
03/29/00,10:00,146.3,189.4,1371.627,,,,
03/29/00,10:30,146.3,189.4,1371.627,,,,
03/29/00,11:00,146.3,189.4,1371.627,,,,
03/29/00,11:30,146.3,189.4,1371.627,,,,
03/29/00,12:00,146.3,189.4,1371.627,,,,
03/29/00,12:30,146.2,189.5,1371.626,,,,
03/29/00,13:00,146.1,189.6,1371.625,,,,
03/29/00,13:30,146.0,189.7,1371.624,,,,
03/29/00,14:00,145.9,189.8,1371.623,,,,
03/29/00,14:30,145.8,189.9,1371.622,,,,
03/29/00,15:00,145.8,189.9,1371.622,,,,
03/29/00,15:30,145.7,190.0,1371.621,,,,
03/29/00,16:00,145.6,190.1,1371.620,,,,
03/29/00,16:30,145.5,190.2,1371.619,,,,
03/29/00,17:00,145.4,190.3,1371.618,,,,
03/29/00,17:30,145.3,190.4,1371.617,,,,
03/29/00,18:00,145.1,190.6,1371.615,,,,
03/29/00,18:30,145.1,190.6,1371.615,,,,
03/29/00,19:00,145.0,190.7,1371.614,,,,
03/29/00,19:30,144.9,190.8,1371.613,,,,
03/29/00,20:00,144.8,190.9,1371.612,,,,
03/29/00,20:30,144.6,191.1,1371.610,,,,
03/29/00,21:00,144.6,191.1,1371.610,,,,
03/29/00,21:30,144.7,191.0,1371.611,,,,
03/29/00,22:00,144.7,191.0,1371.611,,,,
03/29/00,22:30,144.6,191.1,1371.610,,,,
03/29/00,23:00,144.6,191.1,1371.610,,,,
03/29/00,23:30,144.6,191.1,1371.610,,,,
03/30/00,0:00,144.8,191.0,1371.612,,,,
03/30/00,0:30,144.7,191.0,1371.611,,,,
03/30/00,1:00,144.7,191.0,1371.611,,,,
03/30/00,1:30,144.7,191.0,1371.611,,,,
03/30/00,2:00,144.8,190.9,1371.612,,,,
03/30/00,2:30,144.9,190.8,1371.613,,,,
03/30/00,3:00,144.9,190.8,1371.613,,,,
03/30/00,3:30,144.9,190.8,1371.613,,,,
03/30/00,4:00,144.9,190.8,1371.613,,,,
03/30/00,4:30,144.9,190.8,1371.613,,,,
03/30/00,5:00,144.9,190.8,1371.613,,,,
03/30/00,5:30,144.9,190.8,1371.613,,,,
03/30/00,6:00,145.1,190.6,1371.615,,,,
03/30/00,6:30,144.9,190.8,1371.613,,,,
03/30/00,7:00,144.9,190.8,1371.613,,,,
03/30/00,7:30,145.1,190.6,1371.615,,,,
03/30/00,8:00,144.9,190.8,1371.613,,,,
03/30/00,8:30,145.1,190.6,1371.615,,,,
03/30/00,9:00,145.2,190.5,1371.616,,,,
03/30/00,9:30,145.2,190.5,1371.616,,,,
03/30/00,10:00,145.2,190.5,1371.616,,,,
03/30/00,10:30,145.4,190.3,1371.618,,,,
03/30/00,11:00,145.4,190.3,1371.618,,,,
03/30/00,11:30,145.6,190.1,1371.620,,,,
03/30/00,12:00,145.6,190.1,1371.620,,,,
03/30/00,12:30,145.7,190.0,1371.621,,,,
03/30/00,13:00,145.8,189.9,1371.622,,,,
03/30/00,13:30,145.8,189.9,1371.622,,,,
03/30/00,14:00,146.0,189.7,1371.624,,,,
03/30/00,14:30,146.1,189.6,1371.625,,,,
03/30/00,15:00,146.1,189.6,1371.625,,,,
03/30/00,15:30,146.1,189.6,1371.625,,,,
03/30/00,16:00,146.1,189.6,1371.625,,,,
03/30/00,16:30,146.2,189.5,1371.626,,,,
03/30/00,17:00,146.0,189.7,1371.624,,,,
03/30/00,17:30,146.0,189.7,1371.624,,,,
03/30/00,18:00,146.0,189.7,1371.624,,,,
03/30/00,18:30,145.9,189.8,1371.623,,,,
03/30/00,19:00,145.9,189.8,1371.623,,,,
03/30/00,19:30,145.8,189.9,1371.622,,,,
03/30/00,20:00,145.7,190.0,1371.621,,,,
03/30/00,20:30,145.7,190.0,1371.621,,,,
03/30/00,21:00,145.7,190.0,1371.621,,,,
03/30/00,21:30,145.6,190.1,1371.620,,,,
03/30/00,22:00,145.6,190.1,1371.620,,,,
03/30/00,22:30,145.6,190.1,1371.620,,,,
03/30/00,23:00,145.6,190.1,1371.620,,,,
03/30/00,23:30,145.5,190.2,1371.619,,,,
03/31/00,0:00,145.7,190.0,1371.621,,,,
03/31/00,0:30,145.8,189.9,1371.622,,,,
03/31/00,1:00,145.8,189.9,1371.622,,,,
03/31/00,1:30,145.8,189.9,1371.622,,,,
03/31/00,2:00,145.8,189.9,1371.622,,,,
03/31/00,2:30,146.0,189.7,1371.624,,,,
03/31/00,3:00,146.0,189.7,1371.624,,,,
03/31/00,3:30,146.0,189.7,1371.624,,,,
03/31/00,4:00,145.9,189.8,1371.623,,,,
03/31/00,4:30,145.9,189.8,1371.623,,,,
03/31/00,5:00,145.9,189.8,1371.623,,,,
03/31/00,5:30,145.9,189.8,1371.623,,,,
03/31/00,6:00,145.8,189.9,1371.622,,,,
03/31/00,6:30,145.8,189.9,1371.622,,,,
03/31/00,7:00,145.8,189.9,1371.622,,,,
03/31/00,7:30,145.9,189.8,1371.623,,,,
03/31/00,8:00,145.8,189.9,1371.622,,,,
03/31/00,8:30,145.8,189.9,1371.622,,,,
03/31/00,9:00,145.9,189.8,1371.623,,,,
03/31/00,9:30,145.9,189.8,1371.623,,,,
03/31/00,10:00,145.9,189.8,1371.623,,,,
03/31/00,10:30,146.1,189.6,1371.625,,,,
03/31/00,11:00,146.2,189.5,1371.626,,,,
03/31/00,11:30,146.1,189.6,1371.625,,,,
03/31/00,12:00,146.2,189.5,1371.626,,,,
03/31/00,12:30,146.3,189.4,1371.627,,,,
03/31/00,13:00,146.2,189.5,1371.626,,,,
03/31/00,13:30,,,,,No data until 15:30.,,
03/31/00,14:00,,,,,,,
03/31/00,14:30,,,,,,,
03/31/00,15:00,,,,,,,
03/31/00,15:30,146.2,189.5,1371.626,,,,
03/31/00,16:00,146.4,189.3,1371.628,,,,
03/31/00,16:30,146.2,189.5,1371.626,,,,
03/31/00,17:00,146.3,189.4,1371.627,,,,
03/31/00,17:30,146.4,189.3,1371.628,,,,
03/31/00,18:00,146.3,189.4,1371.627,,,,
03/31/00,18:30,146.2,189.6,1371.626,,,,
03/31/00,19:00,146.1,189.6,1371.625,,,,
03/31/00,19:30,146.0,189.7,1371.624,,,,
03/31/00,20:00,146.0,189.7,1371.624,,,,
03/31/00,20:30,146.0,189.7,1371.624,,,,
03/31/00,21:00,145.9,189.8,1371.623,,,,
03/31/00,21:30,145.8,189.9,1371.622,,,,
03/31/00,22:00,146.0,189.7,1371.624,,,,
03/31/00,22:30,145.8,189.9,1371.622,,,,
03/31/00,23:00,145.8,189.9,1371.622,,,,
03/31/00,23:30,145.9,189.8,1371.623,,,,
04/01/00,0:00,145.9,189.8,1371.623,,,,
04/01/00,0:30,145.8,189.9,1371.622,,,,
04/01/00,1:00,145.8,189.9,1371.622,,,,
04/01/00,1:30,145.8,189.9,1371.622,,,,
04/01/00,2:00,145.9,189.8,1371.623,,,,
04/01/00,2:30,146.0,189.7,1371.624,,,,
04/01/00,3:00,146.0,189.7,1371.624,,,,
04/01/00,3:30,146.0,189.7,1371.624,,,,
04/01/00,4:00,146.2,189.5,1371.626,,,,
04/01/00,4:30,146.1,189.6,1371.625,,,,
04/01/00,5:00,146.0,189.7,1371.624,,,,
04/01/00,5:30,145.9,189.8,1371.623,,,,
04/01/00,6:00,146.0,189.7,1371.624,,,,
04/01/00,6:30,145.8,189.9,1371.622,,,,
04/01/00,7:00,145.7,190.0,1371.621,,,,
04/01/00,7:30,145.7,190.0,1371.621,,,,
04/01/00,8:00,145.6,190.1,1371.620,,,,
04/01/00,8:30,145.6,190.1,1371.620,,,,
04/01/00,9:00,145.6,190.1,1371.620,,,,
04/01/00,9:30,145.6,190.1,1371.620,,,,
04/01/00,10:00,145.6,190.1,1371.620,,,,
04/01/00,10:30,145.7,190.0,1371.621,,,,
04/01/00,11:00,145.8,189.9,1371.622,,,,
04/01/00,11:30,145.8,189.9,1371.622,,,,
04/01/00,12:00,146.0,189.7,1371.624,,,,
04/01/00,12:30,145.9,189.8,1371.623,,,,
04/01/00,13:00,145.9,189.8,1371.623,,,,
04/01/00,13:30,145.8,189.9,1371.622,,,,
04/01/00,14:00,145.8,189.9,1371.622,,,,
04/01/00,14:30,146.0,189.7,1371.624,,,,
04/01/00,15:00,145.9,189.8,1371.623,,,,
04/01/00,15:30,145.7,190.0,1371.621,,,,
04/01/00,16:00,145.7,190.0,1371.621,,,,
04/01/00,16:30,145.7,190.0,1371.621,,,,
04/01/00,17:00,145.7,190.0,1371.621,,,,
04/01/00,17:30,145.6,190.1,1371.620,,,,
04/01/00,18:00,145.5,190.2,1371.619,,,,
04/01/00,18:30,145.4,190.3,1371.618,,,,
04/01/00,19:00,145.5,190.2,1371.619,,,,
04/01/00,19:30,145.5,190.2,1371.619,,,,
04/01/00,20:00,145.5,190.2,1371.619,,,,
04/01/00,20:30,145.5,190.2,1371.619,,,,
04/01/00,21:00,145.3,190.4,1371.617,,,,
04/01/00,21:30,145.3,190.4,1371.617,,,,
04/01/00,22:00,145.4,190.3,1371.618,,,,
04/01/00,22:30,145.4,190.3,1371.618,,,,
04/01/00,23:00,145.4,190.3,1371.618,,,,
04/01/00,23:30,145.6,190.1,1371.620,,,,
04/02/00,0:00,145.5,190.2,1371.619,,,,
04/02/00,0:30,145.5,190.2,1371.619,,,,
04/02/00,1:00,145.5,190.2,1371.619,,,,
04/02/00,1:30,145.5,190.2,1371.619,,,,
04/02/00,2:00,145.5,190.2,1371.619,,,,
04/02/00,2:30,145.5,190.2,1371.619,,,,
04/02/00,3:00,145.7,190.0,1371.621,,,,
04/02/00,3:30,145.6,190.1,1371.620,,,,
04/02/00,4:00,145.8,189.9,1371.622,,,,
04/02/00,4:30,145.7,190.0,1371.621,,,,
04/02/00,5:00,145.7,190.0,1371.621,,,,
04/02/00,5:30,145.7,190.0,1371.621,,,,
04/02/00,6:00,145.7,190.0,1371.621,,,,
04/02/00,6:30,145.4,190.3,1371.618,,,,
04/02/00,7:00,145.4,190.3,1371.618,,,,
04/02/00,7:30,145.4,190.3,1371.618,,,,
04/02/00,8:00,145.4,190.3,1371.618,,,,
04/02/00,8:30,145.4,190.3,1371.618,,,,
04/02/00,9:00,145.4,190.3,1371.618,,,,
04/02/00,9:30,145.5,190.2,1371.619,,,,
04/02/00,10:00,145.6,190.1,1371.620,,,,
04/02/00,10:30,145.7,190.0,1371.621,,,,
04/02/00,11:00,145.9,189.8,1371.623,,,,
04/02/00,11:30,146.0,189.7,1371.624,,,,
04/02/00,12:00,146.1,189.6,1371.625,,,,
04/02/00,12:30,146.1,189.6,1371.625,,,,
04/02/00,13:00,146.1,189.6,1371.625,,,,
04/02/00,13:30,146.3,189.4,1371.627,,,,
04/02/00,14:00,146.3,189.4,1371.627,,,,
04/02/00,14:30,146.4,189.3,1371.628,,,,
04/02/00,15:00,146.4,189.3,1371.628,,,,
04/02/00,15:30,146.4,189.3,1371.628,,,,
04/02/00,16:00,146.4,189.3,1371.628,,,,
04/02/00,16:30,146.3,189.4,1371.627,,,,
04/02/00,17:00,146.3,189.4,1371.627,,,,
04/02/00,17:30,146.2,189.5,1371.626,,,,
04/02/00,18:00,146.0,189.7,1371.624,,,,
04/02/00,18:30,145.8,189.9,1371.622,,,,
04/02/00,19:00,145.8,189.9,1371.622,,,,
04/02/00,19:30,145.8,189.9,1371.622,,,,
04/02/00,20:00,145.8,189.9,1371.622,,,,
04/02/00,20:30,145.8,189.9,1371.622,,,,
04/02/00,21:00,145.8,189.9,1371.622,,,,
04/02/00,21:30,145.8,189.9,1371.622,,,,
04/02/00,22:00,145.8,189.9,1371.622,,,,
04/02/00,22:30,145.8,189.9,1371.622,,,,
04/02/00,23:00,146.0,189.7,1371.624,,,,
04/02/00,23:30,146.1,189.6,1371.625,,,,
04/03/00,0:00,146.2,189.5,1371.626,,,,
04/03/00,0:30,146.3,189.4,1371.627,,,,
04/03/00,1:00,146.4,189.3,1371.628,,,,
04/03/00,1:30,146.6,189.1,1371.630,,,,
04/03/00,2:00,146.7,189.0,1371.631,,,,
04/03/00,2:30,146.9,188.8,1371.633,,,,
04/03/00,3:00,147.2,188.5,1371.636,,,,
04/03/00,3:30,147.7,188.0,1371.641,,,,
04/03/00,4:00,148.1,187.6,1371.645,,,,
04/03/00,4:30,148.5,187.2,1371.649,,,,
04/03/00,5:00,149.0,186.7,1371.654,,,,
04/03/00,5:30,149.3,186.4,1371.657,,,,
04/03/00,6:00,149.5,186.2,1371.659,,,,
04/03/00,6:30,149.6,186.1,1371.660,,,,
04/03/00,7:00,149.6,186.1,1371.660,,,,
04/03/00,7:30,149.8,185.9,1371.662,,,,
04/03/00,8:00,150.0,185.7,1371.664,,,,
04/03/00,8:30,150.1,185.6,1371.665,,,,
04/03/00,9:00,150.1,185.6,1371.665,,,,
04/03/00,9:30,150.3,185.4,1371.667,,,,
04/03/00,10:00,150.3,185.4,1371.667,,,,
04/03/00,10:30,150.6,185.1,1371.670,,,,
04/03/00,11:00,150.7,185.0,1371.671,,,,
04/03/00,11:30,150.8,184.9,1371.672,,,,
04/03/00,12:00,150.9,184.8,1371.673,,,,
04/03/00,12:30,150.9,184.8,1371.673,,,,
04/03/00,13:00,151.0,184.7,1371.674,,,,
04/03/00,13:30,151.1,184.6,1371.675,,,,
04/03/00,14:00,151.2,184.5,1371.676,,,,
04/03/00,14:30,151.2,184.5,1371.676,,,,
04/03/00,15:00,151.3,184.4,1371.677,,,,
04/03/00,15:30,151.3,184.4,1371.677,,,,
04/03/00,16:00,151.2,184.5,1371.676,,,,
04/03/00,16:30,151.2,184.5,1371.676,,,,
04/03/00,17:00,151.2,184.5,1371.676,,,,
04/03/00,17:30,151.1,184.6,1371.675,,,,
04/03/00,18:00,151.1,184.6,1371.675,,,,
04/03/00,18:30,150.9,184.8,1371.673,,,,
04/03/00,19:00,150.7,185.0,1371.671,,,,
04/03/00,19:30,150.7,185.0,1371.671,,,,
04/03/00,20:00,150.5,185.2,1371.669,,,,
04/03/00,20:30,150.4,185.3,1371.668,,,,
04/03/00,21:00,150.3,185.4,1371.667,,,,
04/03/00,21:30,150.2,185.5,1371.666,,,,
04/03/00,22:00,150.2,185.5,1371.666,,,,
04/03/00,22:30,150.2,185.5,1371.666,,,,
04/03/00,23:00,150.2,185.5,1371.666,,,,
04/03/00,23:30,150.2,185.5,1371.666,,,,
04/04/00,0:00,150.0,185.7,1371.664,,,,
04/04/00,0:30,149.9,185.8,1371.663,,,,
04/04/00,1:00,149.8,185.9,1371.662,,,,
04/04/00,1:30,149.8,185.9,1371.662,,,,
04/04/00,2:00,149.8,185.9,1371.662,,,,
04/04/00,2:30,149.7,186.0,1371.661,,,,
04/04/00,3:00,149.6,186.1,1371.660,,,,
04/04/00,3:30,149.5,186.2,1371.659,,,,
04/04/00,4:00,149.3,186.4,1371.657,,,,
04/04/00,4:30,149.3,186.4,1371.657,,,,
04/04/00,5:00,149.3,186.4,1371.657,,,,
04/04/00,5:30,149.1,186.6,1371.655,,,,
04/04/00,6:00,149.0,186.8,1371.654,,,,
04/04/00,6:30,148.9,186.8,1371.653,,,,
04/04/00,7:00,148.9,186.8,1371.653,,,,
04/04/00,7:30,148.8,186.9,1371.652,,,,
04/04/00,8:00,148.7,187.0,1371.651,,,,
04/04/00,8:30,148.8,186.9,1371.652,,,,
04/04/00,9:00,148.7,187.0,1371.651,,,,
04/04/00,9:30,148.7,187.0,1371.651,,,,
04/04/00,10:00,148.7,187.0,1371.651,,,,
04/04/00,10:30,148.7,187.0,1371.651,,,,
04/04/00,11:00,148.7,187.0,1371.651,,,,
04/04/00,11:30,148.7,187.0,1371.651,,,,
04/04/00,12:00,148.7,187.0,1371.651,,,,
04/04/00,12:30,148.7,187.1,1371.651,,,,
04/04/00,13:00,148.8,186.9,1371.652,,,,
04/04/00,13:30,148.9,186.8,1371.653,,,,
04/04/00,14:00,148.9,186.8,1371.653,,,,
04/04/00,14:30,149.0,186.7,1371.654,,,,
04/04/00,15:00,149.0,186.7,1371.654,,,,
04/04/00,15:30,149.1,186.6,1371.655,,,,
04/04/00,16:00,149.0,186.7,1371.654,,,,
04/04/00,16:30,148.9,186.8,1371.653,,,,
04/04/00,17:00,148.9,186.8,1371.653,,,,
04/04/00,17:30,148.9,186.8,1371.653,,,,
04/04/00,18:00,148.9,186.8,1371.653,,,,
04/04/00,18:30,148.9,186.8,1371.653,,,,
04/04/00,19:00,148.7,187.0,1371.651,,,,
04/04/00,19:30,148.6,187.1,1371.650,,,,
04/04/00,20:00,148.4,187.3,1371.648,,,,
04/04/00,20:30,148.3,187.4,1371.647,,,,
04/04/00,21:00,148.1,187.6,1371.645,,,,
04/04/00,21:30,148.0,187.7,1371.644,,,,
04/04/00,22:00,147.9,187.8,1371.643,,,,
04/04/00,22:30,147.9,187.8,1371.643,,,,
04/04/00,23:00,147.8,187.9,1371.642,,,,
04/04/00,23:30,147.7,188.0,1371.641,,,,
04/05/00,0:00,147.6,188.1,1371.640,,,,
04/05/00,0:30,147.5,188.2,1371.639,,,,
04/05/00,1:00,147.5,188.2,1371.639,,,,
04/05/00,1:30,147.5,188.2,1371.639,,,,
04/05/00,2:00,147.5,188.2,1371.639,,,,
04/05/00,2:30,147.4,188.3,1371.638,,,,
04/05/00,3:00,147.4,188.3,1371.638,,,,
04/05/00,3:30,147.4,188.3,1371.638,,,,
04/05/00,4:00,147.3,188.4,1371.637,,,,
04/05/00,4:30,147.2,188.5,1371.636,,,,
04/05/00,5:00,147.2,188.5,1371.636,,,,
04/05/00,5:30,147.2,188.5,1371.636,,,,
04/05/00,6:00,147.1,188.6,1371.635,,,,
04/05/00,6:30,147.1,188.6,1371.635,,,,
04/05/00,7:00,147.0,188.7,1371.634,,,,
04/05/00,7:30,146.9,188.8,1371.633,,,,
04/05/00,8:00,146.7,189.0,1371.631,,,,
04/05/00,8:30,146.8,188.9,1371.632,,,,
04/05/00,9:00,146.8,188.9,1371.632,,,,
04/05/00,9:30,146.8,188.9,1371.632,,,,
04/05/00,10:00,146.8,188.9,1371.632,,,,
04/05/00,10:30,146.8,188.9,1371.632,,,,
04/05/00,11:00,146.8,188.9,1371.632,,,,
04/05/00,11:30,146.8,188.9,1371.632,,,,
04/05/00,12:00,146.8,188.9,1371.632,,,,
04/05/00,12:30,146.9,188.8,1371.633,,,,
04/05/00,13:00,147.0,188.7,1371.634,,,,
04/05/00,13:30,146.9,188.8,1371.633,,,,
04/05/00,14:00,146.9,188.8,1371.633,,,,
04/05/00,14:30,146.9,188.8,1371.633,,,,
04/05/00,15:00,146.8,188.9,1371.632,,,,
04/05/00,15:30,146.8,188.9,1371.632,,,,
04/05/00,16:00,146.9,188.8,1371.633,,,,
04/05/00,16:30,146.8,188.9,1371.632,,,,
04/05/00,17:00,146.7,189.0,1371.631,,,,
04/05/00,17:30,146.6,189.1,1371.630,,,,
04/05/00,18:00,146.5,189.2,1371.629,,,,
04/05/00,18:30,146.5,189.2,1371.629,,,,
04/05/00,19:00,146.4,189.3,1371.628,,,,
04/05/00,19:30,146.2,189.5,1371.626,,,,
04/05/00,20:00,146.1,189.6,1371.625,,,,
04/05/00,20:30,145.9,189.8,1371.623,,,,
04/05/00,21:00,145.7,190.0,1371.621,,,,
04/05/00,21:30,145.6,190.1,1371.620,,,,
04/05/00,22:00,145.4,190.3,1371.618,,,,
04/05/00,22:30,145.3,190.4,1371.617,,,,
04/05/00,23:00,145.3,190.4,1371.617,,,,
04/05/00,23:30,145.2,190.5,1371.616,,,,
04/06/00,0:00,145.2,190.5,1371.616,,,,
04/06/00,0:30,145.1,190.6,1371.615,,,,
04/06/00,1:00,145.0,190.7,1371.614,,,,
04/06/00,1:30,144.9,190.8,1371.613,,,,
04/06/00,2:00,144.9,190.8,1371.613,,,,
04/06/00,2:30,144.9,190.8,1371.613,,,,
04/06/00,3:00,144.9,190.8,1371.613,,,,
04/06/00,3:30,144.9,190.8,1371.613,,,,
04/06/00,4:00,144.8,190.9,1371.612,,,,
04/06/00,4:30,144.8,190.9,1371.612,,,,
04/06/00,5:00,144.8,190.9,1371.612,,,,
04/06/00,5:30,144.8,190.9,1371.612,,,,
04/06/00,6:00,144.6,191.1,1371.610,,,,
04/06/00,6:30,144.6,191.1,1371.610,,,,
04/06/00,7:00,144.6,191.1,1371.610,,,,
04/06/00,7:30,144.6,191.1,1371.610,,,,
04/06/00,8:00,144.4,191.3,1371.608,,,,
04/06/00,8:30,144.5,191.2,1371.609,,,,
04/06/00,9:00,144.4,191.3,1371.608,,,,
04/06/00,9:30,144.4,191.3,1371.608,,,,
04/06/00,10:00,144.4,191.3,1371.608,,,,
04/06/00,10:30,144.4,191.3,1371.608,,,,
04/06/00,11:00,144.4,191.3,1371.608,,,,
04/06/00,11:30,144.4,191.3,1371.608,,,,
04/06/00,12:00,144.5,191.2,1371.609,,,,
04/06/00,12:30,144.5,191.2,1371.609,,,,
04/06/00,13:00,144.5,191.2,1371.609,,,,
04/06/00,13:30,144.5,191.2,1371.609,,,,
04/06/00,14:00,144.6,191.2,1371.610,,,,
04/06/00,14:30,144.7,191.0,1371.611,,,,
04/06/00,15:00,144.8,190.9,1371.612,,,,
04/06/00,15:30,144.8,190.9,1371.612,,,,
04/06/00,16:00,144.8,190.9,1371.612,,,,
04/06/00,16:30,144.7,191.0,1371.611,,,,
04/06/00,17:00,144.7,191.0,1371.611,,,,
04/06/00,17:30,144.6,191.1,1371.610,,,,
04/06/00,18:00,144.5,191.2,1371.609,,,,
04/06/00,18:30,144.4,191.3,1371.608,,,,
04/06/00,19:00,144.2,191.5,1371.606,,,,
04/06/00,19:30,144.1,191.6,1371.605,,,,
04/06/00,20:00,143.9,191.8,1371.603,,,,
04/06/00,20:30,143.7,192.0,1371.601,,,,
04/06/00,21:00,143.5,192.2,1371.599,,,,
04/06/00,21:30,143.3,192.4,1371.597,,,,
04/06/00,22:00,143.3,192.4,1371.597,,,,
04/06/00,22:30,143.1,192.6,1371.595,,,,
04/06/00,23:00,143.0,192.7,1371.594,,,,
04/06/00,23:30,143.0,192.7,1371.594,,,,
04/07/00,0:00,143.0,192.7,1371.594,,,,
04/07/00,0:30,142.9,192.8,1371.593,,,,
04/07/00,1:00,142.8,192.9,1371.592,,,,
04/07/00,1:30,142.8,192.9,1371.592,,,,
04/07/00,2:00,142.7,193.0,1371.591,,,,
04/07/00,2:30,142.7,193.0,1371.591,,,,
04/07/00,3:00,142.7,193.0,1371.591,,,,
04/07/00,3:30,142.6,193.1,1371.590,,,,
04/07/00,4:00,142.5,193.2,1371.589,,,,
04/07/00,4:30,142.5,193.2,1371.589,,,,
04/07/00,5:00,142.4,193.3,1371.588,,,,
04/07/00,5:30,142.3,193.4,1371.587,,,,
04/07/00,6:00,142.2,193.5,1371.586,,,,
04/07/00,6:30,142.2,193.5,1371.586,,,,
04/07/00,7:00,142.0,193.7,1371.584,,,,
04/07/00,7:30,142.0,193.7,1371.584,,,,
04/07/00,8:00,141.8,193.9,1371.582,,,,
04/07/00,8:30,141.8,193.9,1371.582,,,,
04/07/00,9:00,141.7,194.0,1371.581,,,,
04/07/00,9:30,141.8,193.9,1371.582,,,,
04/07/00,10:00,141.8,193.9,1371.582,,,,
04/07/00,10:30,141.8,193.9,1371.582,,,,
04/07/00,11:00,141.7,194.0,1371.581,,,,
04/07/00,11:30,141.7,194.0,1371.581,,,,
04/07/00,12:00,141.7,194.0,1371.581,,,,
04/07/00,12:30,141.7,194.0,1371.581,,,,
04/07/00,13:00,141.7,194.0,1371.581,,,,
04/07/00,13:30,141.7,194.0,1371.581,,,,
04/07/00,14:00,141.7,194.0,1371.581,,,,
04/07/00,14:30,141.6,194.1,1371.580,,,,
04/07/00,15:00,141.5,194.2,1371.579,,,,
04/07/00,15:30,141.6,194.1,1371.580,,,,
04/07/00,16:00,141.6,194.1,1371.580,,,,
04/07/00,16:30,141.5,194.2,1371.579,,,,
04/07/00,17:00,141.5,194.2,1371.579,,,,
04/07/00,17:30,141.4,194.3,1371.578,,,,
04/07/00,18:00,141.3,194.4,1371.577,,,,
04/07/00,18:30,141.2,194.5,1371.576,,,,
04/07/00,19:00,141.0,194.7,1371.574,,,,
04/07/00,19:30,140.9,194.8,1371.573,,,,
04/07/00,20:00,140.9,194.8,1371.573,,,,
04/07/00,20:30,140.7,195.0,1371.571,,,,
04/07/00,21:00,140.5,195.2,1371.569,,,,
04/07/00,21:30,140.2,195.5,1371.566,,,,
04/07/00,22:00,140.0,195.7,1371.564,,,,
04/07/00,22:30,139.9,195.8,1371.563,,,,
04/07/00,23:00,139.8,195.9,1371.562,,,,
04/07/00,23:30,139.7,196.0,1371.561,,,,
04/08/00,0:00,139.6,196.1,1371.560,,,,
04/08/00,0:30,139.5,196.2,1371.559,,,,
04/08/00,1:00,139.4,196.3,1371.558,,,,
04/08/00,1:30,139.3,196.4,1371.557,,,,
04/08/00,2:00,139.3,196.4,1371.557,,,,
04/08/00,2:30,139.1,196.6,1371.555,,,,
04/08/00,3:00,139.1,196.6,1371.555,,,,
04/08/00,3:30,139.0,196.7,1371.554,,,,
04/08/00,4:00,139.0,196.7,1371.554,,,,
04/08/00,4:30,138.9,196.8,1371.553,,,,
04/08/00,5:00,138.8,196.9,1371.552,,,,
04/08/00,5:30,138.7,197.0,1371.551,,,,
04/08/00,6:00,138.8,196.9,1371.552,,,,
04/08/00,6:30,138.7,197.0,1371.551,,,,
04/08/00,7:00,138.6,197.1,1371.550,,,,
04/08/00,7:30,138.6,197.1,1371.550,,,,
04/08/00,8:00,138.5,197.2,1371.549,,,,
04/08/00,8:30,138.5,197.2,1371.549,,,,
04/08/00,9:00,138.4,197.3,1371.548,,,,
04/08/00,9:30,138.4,197.3,1371.548,,,,
04/08/00,10:00,138.4,197.3,1371.548,,,,
04/08/00,10:30,138.4,197.3,1371.548,,,,
04/08/00,11:00,138.4,197.3,1371.548,,,,
04/08/00,11:30,138.5,197.2,1371.549,,,,
04/08/00,12:00,138.6,197.1,1371.550,,,,
04/08/00,12:30,138.6,197.1,1371.550,,,,
04/08/00,13:00,138.7,197.0,1371.551,,,,
04/08/00,13:30,138.7,197.0,1371.551,,,,
04/08/00,14:00,138.8,196.9,1371.552,,,,
04/08/00,14:30,138.9,196.8,1371.553,,,,
04/08/00,15:00,138.9,196.8,1371.553,,,,
04/08/00,15:30,138.9,196.8,1371.553,,,,
04/08/00,16:00,139.1,196.6,1371.555,,,,
04/08/00,16:30,139.1,196.6,1371.555,,,,
04/08/00,17:00,139.1,196.6,1371.555,,,,
04/08/00,17:30,139.1,196.6,1371.555,,,,
04/08/00,18:00,139.0,196.7,1371.554,,,,
04/08/00,18:30,138.9,196.8,1371.553,,,,
04/08/00,19:00,138.8,196.9,1371.552,,,,
04/08/00,19:30,138.8,196.9,1371.552,,,,
04/08/00,20:00,138.8,196.9,1371.552,,,,
04/08/00,20:30,138.7,197.0,1371.551,,,,
04/08/00,21:00,138.5,197.2,1371.549,,,,
04/08/00,21:30,138.5,197.2,1371.549,,,,
04/08/00,22:00,138.5,197.2,1371.549,,,,
04/08/00,22:30,138.3,197.4,1371.547,,,,
04/08/00,23:00,138.4,197.3,1371.548,,,,
04/08/00,23:30,138.3,197.4,1371.547,,,,
04/09/00,0:00,138.3,197.4,1371.547,,,,
04/09/00,0:30,138.3,197.4,1371.547,,,,
04/09/00,1:00,138.3,197.4,1371.547,,,,
04/09/00,1:30,138.4,197.4,1371.548,,,,
04/09/00,2:00,138.3,197.4,1371.547,,,,
04/09/00,2:30,138.3,197.4,1371.547,,,,
04/09/00,3:00,138.3,197.4,1371.547,,,,
04/09/00,3:30,138.3,197.4,1371.547,,,,
04/09/00,4:00,138.2,197.5,1371.546,,,,
04/09/00,4:30,138.3,197.4,1371.547,,,,
04/09/00,5:00,138.1,197.6,1371.545,,,,
04/09/00,5:30,138.1,197.6,1371.545,,,,
04/09/00,6:00,138.1,197.6,1371.545,,,,
04/09/00,6:30,138.1,197.6,1371.545,,,,
04/09/00,7:00,138.0,197.7,1371.544,,,,
04/09/00,7:30,137.7,198.0,1371.541,,,,
04/09/00,8:00,137.8,197.9,1371.542,,,,
04/09/00,8:30,137.7,198.0,1371.541,,,,
04/09/00,9:00,137.7,198.0,1371.541,,,,
04/09/00,9:30,137.8,197.9,1371.542,,,,
04/09/00,10:00,137.7,198.0,1371.541,,,,
04/09/00,10:30,137.8,197.9,1371.542,,,,
04/09/00,11:00,137.7,198.0,1371.541,,,,
04/09/00,11:30,137.9,197.8,1371.543,,,,
04/09/00,12:00,138.0,197.7,1371.544,,,,
04/09/00,12:30,138.1,197.6,1371.545,,,,
04/09/00,13:00,138.1,197.6,1371.545,,,,